DW1996 Weather Reports


time (UTC)temp
F
wind
direction
speed
knots
gust
knots
rain 1hr
in
rain 24hr
in
rain mn
in
humidity
%
barometer
mb
20260505074558 76 192 4.3 10.4 0.00 0.00 0.00 86 1007.9
20260505073100 76 199 3.5 8.7 0.00 0.00 0.00 86 1008.2
20260505071555 76 201 3.5 7.8 0.00 0.00 0.00 85 1008.2
20260505070057 76 174 4.3 8.7 0.00 0.00 0.00 85 1008.4
20260505064622 76 193 3.5 9.6 0.00 0.00 0.00 85 1008.4
20260505063047 76 196 4.3 9.6 0.00 0.00 0.00 85 1008.9
20260505061544 76 163 4.3 9.6 0.00 0.00 0.00 85 1008.8
20260505060145 76 175 3.5 9.6 0.00 0.00 0.00 84 1009.1
20260505054547 76 205 5.2 9.6 0.00 0.00 0.00 84 1009.2
20260505053036 76 194 4.3 8.7 0.00 0.00 0.00 83 1009.5
20260505051535 76 152 5.2 9.6 0.00 0.00 0.00 83 1009.5
20260505041529 77 182 5.2 10.4 0.00 0.00 0.00 82 1009.9
20260505040031 77 214 4.3 8.7 0.00 0.00 0.00 82 1010.0
20260505034532 77 188 5.2 10.4 0.00 0.00 0.00 82 1010.0
20260505033030 77 182 5.2 10.4 0.00 0.00 0.00 81 1009.9
20260505031527 77 157 7.0 12.2 0.00 0.00 0.00 81 1009.8
20260505030041 77 207 5.2 12.2 0.00 0.00 0.00 80 1009.7
20260505024525 77 144 3.5 10.4 0.00 0.00 0.00 80 1009.6
20260505023027 77 121 6.1 13.0 0.00 0.00 0.00 79 1009.3
20260505021525 77 142 7.0 13.0 0.00 0.00 0.00 79 1009.1
20260505020024 77 165 6.1 14.8 0.00 0.00 0.00 79 1009.0
20260505014525 77 171 6.1 13.0 0.00 0.00 0.00 78 1009.1
20260505013022 77 196 4.3 13.9 0.00 0.00 0.00 77 1009.2
20260505011523 77 157 5.2 12.2 0.00 0.00 0.00 77 1009.3
20260505010020 78 144 7.8 14.8 0.00 0.00 0.00 76 1009.2
20260505004533 78 161 6.1 12.2 0.00 0.00 0.00 75 1009.3
20260505003019 78 163 7.0 12.2 0.00 0.00 0.00 75 1009.3
20260505001519 79 156 7.0 15.6 0.00 0.00 0.00 74 1009.4
20260505000018 79 165 7.8 14.8 0.00 0.00 0.00 73 1009.4
20260504234519 80 181 4.3 13.0 0.00 0.00 0.00 72 1009.7
20260504233020 80 151 4.3 12.2 0.00 0.00 0.00 71 1009.9
20260504231514 80 182 7.8 13.9 0.00 0.00 0.00 71 1009.9
20260504230014 80 163 7.0 14.8 0.00 0.00 0.00 71 1009.8
20260504224513 80 150 7.0 15.6 0.00 0.00 0.00 70 1009.7
20260504223013 81 147 8.7 14.8 0.00 0.00 0.00 68 1009.8
20260504221513 81 128 8.7 15.6 0.00 0.00 0.00 68 1009.7
20260504220011 82 194 10.4 16.5 0.00 0.00 0.00 66 1009.6
20260504214507 82 163 9.6 14.8 0.00 0.00 0.00 66 1010.0
20260504213016 82 188 6.1 13.0 0.00 0.00 0.00 66 1010.2
20260504211503 83 157 7.0 13.0 0.00 0.00 0.00 65 1010.4
20260504210002 83 168 7.8 15.6 0.00 0.00 0.00 65 1010.5
20260504204600 83 148 8.7 16.5 0.00 0.00 0.00 65 1010.6
20260504203059 83 138 7.8 15.6 0.00 0.00 0.00 65 1010.8
20260504201601 83 167 7.0 16.5 0.00 0.00 0.00 64 1011.0
20260504200056 83 142 7.8 16.5 0.00 0.00 0.00 64 1011.3
20260504194602 84 186 7.8 14.8 0.00 0.00 0.00 62 1011.2
20260504193055 84 157 10.4 18.2 0.00 0.00 0.00 62 1011.4
20260504191613 83 119 7.8 17.4 0.00 0.00 0.00 64 1011.5
20260504190050 83 138 9.6 17.4 0.00 0.00 0.00 63 1011.8
20260504184556 84 167 7.0 14.8 0.00 0.00 0.00 62 1011.8
20260504183048 83 157 7.0 16.5 0.00 0.00 0.00 63 1011.9
20260504181547 82 174 7.8 14.8 0.00 0.00 0.00 64 1012.0
20260504180045 84 148 7.8 13.9 0.00 0.00 0.00 61 1012.0
20260504174542 84 157 7.8 16.5 0.00 0.00 0.00 62 1012.3
20260504173039 84 157 7.8 16.5 0.00 0.00 0.00 62 1012.6
20260504171540 83 174 9.6 16.5 0.00 0.00 0.00 63 1012.6
20260504081536 73 172 0.9 4.3 0.00 0.00 0.00 77 1014.5